When you browse on this site, cookies collect data to enhance your experience and personalize the content and advertising you see.
Visit our Privacy Policy to learn more. By continuing to use the site, you agree to this use of cookies and data.

Hourly Weather Kingston upon Thames

Today, 22 September, Tuesday

Time Temperature Precipitation Wind Pressure Humidity
00:00 +18°C° 0 mm 1 mps 759 mmHg 75%
01:00 +18°C° 0 mm 1 mps 758 mmHg 77%
02:00 +18°C° 0 mm 1 mps 758 mmHg 79%
03:00 +18°C° 0 mm 1 mps 757 mmHg 81%
04:00 +16°C° 0 mm 1 mps 757 mmHg 82%
05:00 +16°C° 0 mm 1 mps 757 mmHg 82%
06:00 +16°C° 0 mm 1 mps 757 mmHg 83%
07:00 +17°C° 0 mm 2 mps 756 mmHg 78%
08:00 +19°C° 0 mm 2 mps 756 mmHg 72%
09:00 +21°C° 0 mm 3 mps 756 mmHg 66%
10:00 +21°C° 0 mm 3 mps 756 mmHg 61%
11:00 +22°C° 0 mm 4 mps 755 mmHg 56%
12:00 +23°C° 0 mm 4 mps 754 mmHg 51%
13:00 +23°C° 0 mm 4 mps 754 mmHg 50%
14:00 +23°C° 0 mm 4 mps 753 mmHg 49%
15:00 +23°C° 0 mm 5 mps 753 mmHg 48%
16:00 +21°C° 0 mm 5 mps 752 mmHg 57%
17:00 +20°C° 0 mm 5 mps 752 mmHg 66%
18:00 +19°C° 0 mm 4 mps 752 mmHg 75%
19:00 +18°C° 0 mm 4 mps 752 mmHg 77%
20:00 +18°C° 0 mm 4 mps 752 mmHg 79%
21:00 +17°C° 0 mm 4 mps 752 mmHg 81%
22:00 +17°C° 0 mm 3 mps 751 mmHg 84%
23:00 +16°C° 0 mm 3 mps 751 mmHg 86%

Tomorrow, 23 September, Wednesday

Time Temperature Precipitation Wind Pressure Humidity
00:00 +16°C° 0 mm 3 mps 751 mmHg 89%
01:00 +16°C° 0.4 mm 2 mps 750 mmHg 89%
02:00 +16°C° 0.4 mm 2 mps 750 mmHg 90%
03:00 +16°C° 0.4 mm 2 mps 750 mmHg 91%
04:00 +16°C° 1.5 mm 2 mps 749 mmHg 91%
05:00 +16°C° 1.5 mm 3 mps 749 mmHg 90%
06:00 +16°C° 1.5 mm 3 mps 749 mmHg 89%
07:00 +15°C° 0 mm 4 mps 749 mmHg 86%
08:00 +17°C° 0 mm 4 mps 749 mmHg 82%
09:00 +17°C° 0 mm 4 mps 749 mmHg 78%
10:00 +17°C° 0.2 mm 5 mps 749 mmHg 77%
11:00 +17°C° 0.2 mm 5 mps 749 mmHg 77%
12:00 +17°C° 0.2 mm 5 mps 749 mmHg 76%
13:00 +17°C° 0.6 mm 4 mps 749 mmHg 76%
14:00 +17°C° 0.6 mm 4 mps 749 mmHg 76%
15:00 +16°C° 0.6 mm 3 mps 748 mmHg 76%
16:00 +16°C° 0.2 mm 3 mps 748 mmHg 76%
17:00 +14°C° 0.2 mm 3 mps 748 mmHg 77%
18:00 +14°C° 0.2 mm 2 mps 748 mmHg 78%
19:00 +12°C° 0.8 mm 3 mps 748 mmHg 79%
20:00 +12°C° 0.8 mm 3 mps 748 mmHg 79%
21:00 +11°C° 0.8 mm 4 mps 748 mmHg 80%
22:00 +10°C° 0.1 mm 4 mps 748 mmHg 81%
23:00 +10°C° 0.1 mm 4 mps 748 mmHg 82%

Day after tomorrow, 24 September, Thursday

Time Temperature Precipitation Wind Pressure Humidity
00:00 +8°C° 0.1 mm 4 mps 749 mmHg 84%
01:00 +8°C° 0 mm 3 mps 748 mmHg 83%
02:00 +8°C° 0 mm 3 mps 748 mmHg 81%
03:00 +7°C° 0 mm 3 mps 748 mmHg 80%
04:00 +8°C° 0 mm 3 mps 748 mmHg 79%
05:00 +9°C° 0 mm 3 mps 747 mmHg 78%
06:00 +8°C° 0 mm 4 mps 747 mmHg 76%
07:00 +9°C° 0.8 mm 5 mps 747 mmHg 73%
08:00 +11°C° 0.8 mm 6 mps 746 mmHg 70%
09:00 +12°C° 0.8 mm 7 mps 746 mmHg 67%
10:00 +13°C° 0.1 mm 6 mps 746 mmHg 63%
11:00 +14°C° 0.1 mm 6 mps 745 mmHg 59%
12:00 +15°C° 0.1 mm 6 mps 745 mmHg 55%
13:00 +14°C° 0.3 mm 6 mps 745 mmHg 58%
14:00 +12°C° 0.3 mm 7 mps 745 mmHg 60%
15:00 +12°C° 0.3 mm 7 mps 745 mmHg 62%
16:00 +11°C° 0.1 mm 6 mps 745 mmHg 65%
17:00 +10°C° 0.1 mm 5 mps 745 mmHg 68%
18:00 +10°C° 0.1 mm 4 mps 745 mmHg 71%
19:00 +10°C° 0 mm 3 mps 745 mmHg 72%
20:00 +9°C° 0 mm 3 mps 745 mmHg 73%
21:00 +9°C° 0 mm 2 mps 744 mmHg 74%
22:00 +8°C° 0 mm 2 mps 744 mmHg 75%
23:00 +8°C° 0 mm 2 mps 744 mmHg 76%

25 September, Friday

Time Temperature Precipitation Wind Pressure Humidity
00:00 +8°C° 0 mm 2 mps 743 mmHg 77%
01:00 +8°C° 0.3 mm 2 mps 743 mmHg 78%
02:00 +8°C° 0.3 mm 3 mps 743 mmHg 78%
03:00 +8°C° 0.3 mm 4 mps 743 mmHg 78%
04:00 +7°C° 0.1 mm 4 mps 744 mmHg 77%
05:00 +7°C° 0.1 mm 5 mps 745 mmHg 77%
06:00 +7°C° 0.1 mm 5 mps 746 mmHg 76%
07:00 +7°C° 0 mm 6 mps 747 mmHg 75%
08:00 +8°C° 0 mm 6 mps 748 mmHg 75%
09:00 +9°C° 0 mm 7 mps 749 mmHg 75%
10:00 +10°C° 0.1 mm 7 mps 749 mmHg 69%
11:00 +11°C° 0.1 mm 7 mps 750 mmHg 63%
12:00 +12°C° 0.1 mm 7 mps 751 mmHg 57%
13:00 +12°C° 0 mm 7 mps 752 mmHg 53%
14:00 +12°C° 0 mm 7 mps 752 mmHg 50%
15:00 +12°C° 0 mm 7 mps 753 mmHg 47%
16:00 +11°C° 0 mm 7 mps 754 mmHg 50%
17:00 +10°C° 0 mm 6 mps 754 mmHg 54%
18:00 +9°C° 0 mm 5 mps 755 mmHg 58%
19:00 +8°C° 0 mm 5 mps 755 mmHg 61%
20:00 +8°C° 0 mm 5 mps 756 mmHg 63%
21:00 +7°C° 0 mm 5 mps 756 mmHg 66%
22:00 +7°C° 0 mm 5 mps 757 mmHg 68%
23:00 +7°C° 0 mm 5 mps 757 mmHg 70%

26 September, Saturday

Time Temperature Precipitation Wind Pressure Humidity
00:00 +7°C° 0 mm 5 mps 757 mmHg 72%
01:00 +7°C° 0 mm 5 mps 758 mmHg 72%
02:00 +6°C° 0 mm 5 mps 758 mmHg 72%
03:00 +6°C° 0 mm 5 mps 758 mmHg 72%
04:00 +6°C° 0 mm 5 mps 758 mmHg 72%
05:00 +5°C° 0 mm 5 mps 759 mmHg 72%
06:00 +5°C° 0 mm 5 mps 759 mmHg 72%
07:00 +6°C° 0 mm 5 mps 759 mmHg 68%
08:00 +7°C° 0 mm 5 mps 760 mmHg 64%
09:00 +9°C° 0 mm 6 mps 760 mmHg 59%
10:00 +9°C° 0 mm 6 mps 760 mmHg 57%
11:00 +10°C° 0 mm 5 mps 760 mmHg 56%
12:00 +12°C° 0 mm 5 mps 760 mmHg 54%
13:00 +13°C° 0 mm 5 mps 760 mmHg 53%
14:00 +13°C° 0 mm 5 mps 760 mmHg 53%
15:00 +13°C° 0 mm 4 mps 760 mmHg 52%
16:00 +12°C° 0 mm 4 mps 760 mmHg 56%
17:00 +12°C° 0 mm 3 mps 760 mmHg 59%
18:00 +11°C° 0 mm 3 mps 760 mmHg 63%
19:00 +10°C° 0.1 mm 3 mps 761 mmHg 67%
20:00 +10°C° 0.1 mm 3 mps 761 mmHg 71%
21:00 +9°C° 0.1 mm 3 mps 761 mmHg 75%
22:00 +9°C° 0.1 mm 3 mps 761 mmHg 77%
23:00 +8°C° 0.1 mm 3 mps 761 mmHg 80%

27 September, Sunday

Time Temperature Precipitation Wind Pressure Humidity
00:00 +8°C° 0.1 mm 2 mps 762 mmHg 82%
01:00 +7°C° 0 mm 2 mps 762 mmHg 81%
02:00 +7°C° 0 mm 2 mps 762 mmHg 80%
03:00 +6°C° 0 mm 2 mps 762 mmHg 79%
04:00 +6°C° 0 mm 2 mps 762 mmHg 78%
05:00 +6°C° 0 mm 2 mps 762 mmHg 77%
06:00 +5°C° 0 mm 2 mps 763 mmHg 76%
07:00 +7°C° 0 mm 2 mps 763 mmHg 70%
08:00 +8°C° 0 mm 3 mps 763 mmHg 64%
09:00 +9°C° 0 mm 3 mps 763 mmHg 58%
10:00 +10°C° 0 mm 3 mps 763 mmHg 54%
11:00 +12°C° 0 mm 3 mps 763 mmHg 51%
12:00 +13°C° 0 mm 3 mps 763 mmHg 48%
13:00 +13°C° 0 mm 3 mps 763 mmHg 48%
14:00 +14°C° 0 mm 3 mps 762 mmHg 47%
15:00 +14°C° 0 mm 4 mps 762 mmHg 47%
16:00 +13°C° 0 mm 3 mps 762 mmHg 52%
17:00 +12°C° 0 mm 3 mps 762 mmHg 58%
18:00 +11°C° 0 mm 3 mps 762 mmHg 63%
19:00 +10°C° 0 mm 3 mps 762 mmHg 68%
20:00 +10°C° 0 mm 3 mps 762 mmHg 72%
21:00 +9°C° 0 mm 3 mps 762 mmHg 77%
22:00 +10°C° 0 mm 3 mps 762 mmHg 79%
23:00 +10°C° 0 mm 3 mps 762 mmHg 81%
Show more